Location: Baumgarten
(49.0970°N, 12.7493°E)
Time: 02:52:24
(UTC+00:00)

Meteor 1-29 - Pass Details

Date: 05 July 2020
Orbit: 440 x 459 km, 97.7° (Epoch: 04 August)

Event Time Altitude Azimuth Distance (km) Brightness Sun altitude
Rises 23:23:18 0° 24° (NNE) 2,452 7.9 -18.2°
Reaches altitude 10° 23:25:34 10° 38° (NE) 1,578 6.4 -18.2°
Maximum altitude 23:28:26 25° 96° (E) 946 4.5 -18.2°
Enters shadow 23:29:01 24° 114° (ESE) 982 4.4 -18.2°
